Regional Weather Roundup
Issued by NWS

Home | Current Version | Previous Version | Text Only | Print | Product List | Glossary On
Versions: 1 2 3 4 5 6 7 8 9 10 11 12 13 14 15 16 17 18 19 20 21 22 23 24 25 26 27 28 29 30 31 32 33 34 35 36 37 38 39 40 41 42 43 44 45 46 47 48 49 50
000
ASUS42 KKEY 260610
RWRKEY

FLORIDA REGIONAL WEATHER ROUNDUP FOR THE FLORIDA KEYS
NATIONAL WEATHER SERVICE KEY WEST FLORIDA
200 AM EDT SUN APR 26 2015

...SOUTH FLORIDA AND THE KEYS...

CITY           SKY/WX    TMP DP  RH WIND       PRES   REMARKS
FORT MYERS     CLEAR     77  74  90 SW5       29.86F
SW REGIONAL AP CLEAR     76  72  87 SW6       29.87F
NAPLES         CLEAR     80  74  81 SW7       29.87F
MIAMI          CLEAR     78  72  81 SW3       29.88F
WEST KENDALL   CLEAR     73  71  93 CALM      29.88F
HOMESTEAD      CLEAR     74  72  93 SW2       29.87F
MARATHON       CLEAR     82  75  79 S7        29.89S
BOCA CHICA NAS CLEAR     81  74  79 S13       29.89F
KEY WEST INTL  CLEAR     82  76  81 S10       29.89F

...INTERNATIONAL WEATHER...

CITY           SKY/WX    TMP DP  RH WIND       PRES   REMARKS
NASSAU BAHAMAS NOT AVBL
CANCUN MEXICO  CLEAR     81  75  83 SE10      29.88F
COZUMEL MEXICO PTCLDY    73  73 100 CALM      29.89F

ADJACENT COASTAL WATERS...

STATION/POSITION TIME  SKY/WX   TEMP    WIND        PRES    WAVE
                                AIR SEA DIR/SP/G            HT/PER
                 (UTC)          (F)     (DEG/KT/KT) (MB)    (FT/S)
PULASKI SHOAL LI 0500            82     180/ 12/ 13 1012.4F
SAND KEY         0550            81     180/ 11/ 13 1012.3F
SOMBRERO KEY     0600            81     180/ 15/ 16 1012.7F
LONG KEY         0500            82 87  190/  9/ 11 1013.0F
MOLASSES REEF    0600            80 81  210/ 10/ 11 1011.7F
FOWEY ROCKS      NOT AVBL

$$


USA.gov is the U.S. government's official web portal to all federal, state and local government web resources and services.